Hourly Data Report for June 04, 2021

FISHER BRANCH (AUT)
MANITOBA
Current Station Operator: ECCC - MSC

51°05'00.100" N
97°33'16.200" W
253.00 m
50309J6
71442
WSZ

Download Data

Hourly Data (June 2021)
Hourly Data Report for June 4, 2021
TIME
LST
Temp Definition
°C
Dew Point Definition
°C
Rel Hum Definition
%
Precip. Amount Definition
mm

Wind Dir Definition
10's deg

Wind Spd Definition
km/h
Visibility Definition
km
Stn Press Definition
kPa
Hmdx Definition


Wind Chill Definition


Weather Definition


00:00 19.7 11.0 57 0.0 16 11   97.42     LegendNANA
01:00 19.5 9.7 53 0.0 17 10   97.35     LegendNANA
02:00 19.1 9.1 52 0.0 17 12   97.26     LegendNANA
03:00 19.7 8.6 49 0.0 18 17   97.17     LegendNANA
04:00 20.1 9.9 52 0.0 18 16   97.03     LegendNANA
05:00 21.9 10.7 49 0.0 19 22   96.92     LegendNANA
06:00 23.1 11.6 48 0.0 20 25   96.86 25   LegendNANA
07:00 24.7 11.9 45 0.0 21 19   96.80 27   LegendNANA
08:00 25.6 12.0 43 0.0 26 13   96.87 28   LegendNANA
09:00 27.6 12.1 38 0.0 29 14   96.88 30   LegendNANA
10:00 28.3 11.1 34 0.0 34 9   96.87 30   LegendNANA
11:00 31.0 10.6 28 0.0 28 3   96.78 33   LegendNANA
12:00 33.2 10.2 24 0.0 26 9   96.81 35   LegendNANA
13:00 32.4 10.3 26 0.0 31 24   96.89 34   LegendNANA
14:00 31.8 10.7 27 0.0 29 27   96.94 33   LegendNANA
15:00 30.6 13.0 34 0.0 35 20   97.00 33   LegendNANA
16:00 29.3 13.5 38 0.0 35 24   97.04 32   LegendNANA
17:00 26.7 11.8 40 0.0 35 24   97.12 29   LegendNANA
18:00 25.1 10.9 41 0.0 35 22   97.15 27   LegendNANA
19:00 25.0 11.9 44 0.0 36 11   97.17 27   LegendNANA
20:00 23.9 10.2 42 0.0 36 10   97.18 25   LegendNANA
21:00 20.8 11.1 54 0.0 1 7   97.21     LegendNANA
22:00 20.0 12.3 61 0.0 36 8   97.29     LegendNANA
23:00 16.3 11.8 74 0.0 34 5   97.35     LegendNANA

Notes on Data Quality.

Legend

  • E = Estimated
  • M = Missing
  • NA = Not Available*
  • [empty] = Indicates an unobserved value
Date modified: